TimeEDT,TemperatureF,Dew PointF,Humidity,Sea Level PressureIn,VisibilityMPH,Wind Direction,Wind SpeedMPH,Gust SpeedMPH,PrecipitationIn,Events,Conditions,WindDirDegrees,DateUTC
12:21 AM,64.4,50.0,59,29.51,10.0,SSE,12.7,19.6,N/A,Thunderstorm,Overcast,160,2012-10-18 04:21:00
12:36 AM,64.4,50.0,59,29.52,10.0,South,11.5,19.6,N/A,,Overcast,180,2012-10-18 04:36:00
12:53 AM,64.0,50.0,60,29.52,10.0,South,10.4,17.3,0.00,Thunderstorm,Overcast,180,2012-10-18 04:53:00
1:19 AM,64.4,48.2,56,29.51,10.0,SSE,8.1,-,N/A,Thunderstorm,Overcast,150,2012-10-18 05:19:00
1:40 AM,64.4,48.2,56,29.49,10.0,SSE,9.2,-,N/A,,Overcast,150,2012-10-18 05:40:00
1:53 AM,63.0,48.9,60,29.48,10.0,SSE,6.9,-,N/A,,Overcast,160,2012-10-18 05:53:00
2:53 AM,63.0,46.9,56,29.47,10.0,SSE,11.5,17.3,N/A,,Scattered Clouds,160,2012-10-18 06:53:00
3:53 AM,62.1,46.0,56,29.41,10.0,SSE,11.5,18.4,N/A,,Partly Cloudy,150,2012-10-18 07:53:00
4:53 AM,62.1,45.0,53,29.40,10.0,South,16.1,23.0,N/A,,Overcast,170,2012-10-18 08:53:00
5:53 AM,62.1,46.0,56,29.38,10.0,South,11.5,-,N/A,,Overcast,170,2012-10-18 09:53:00
6:53 AM,55.9,52.0,87,29.40,10.0,South,11.5,-,0.03,Rain,Light Rain,190,2012-10-18 10:53:00
7:22 AM,55.4,53.6,94,29.41,7.0,South,13.8,23.0,0.03,Rain,Light Rain,180,2012-10-18 11:22:00
7:44 AM,55.4,51.8,88,29.43,4.0,WSW,9.2,25.3,0.09,Rain,Rain,240,2012-10-18 11:44:00
7:53 AM,53.1,50.0,89,29.44,4.0,WSW,9.2,18.4,0.13,Rain,Rain,240,2012-10-18 11:53:00
8:20 AM,51.8,48.2,88,29.46,10.0,SW,11.5,19.6,0.03,Rain,Light Rain,230,2012-10-18 12:20:00
8:53 AM,51.1,46.9,86,29.47,10.0,SW,11.5,19.6,0.05,Rain,Light Rain,230,2012-10-18 12:53:00
9:53 AM,51.1,46.9,86,29.50,10.0,SW,12.7,18.4,0.01,,Overcast,220,2012-10-18 13:53:00
10:18 AM,51.8,44.6,76,29.50,10.0,SW,15.0,27.6,N/A,,Mostly Cloudy,230,2012-10-18 14:18:00
10:25 AM,51.8,44.6,76,29.51,10.0,SW,12.7,25.3,N/A,,Scattered Clouds,220,2012-10-18 14:25:00
10:34 AM,51.8,44.6,76,29.51,10.0,SW,12.7,27.6,N/A,,Mostly Cloudy,230,2012-10-18 14:34:00
10:43 AM,51.8,44.6,76,29.52,10.0,SW,15.0,26.5,N/A,,Partly Cloudy,230,2012-10-18 14:43:00
10:53 AM,53.1,44.1,71,29.52,10.0,WSW,11.5,25.3,N/A,,Partly Cloudy,240,2012-10-18 14:53:00
11:53 AM,54.0,41.0,62,29.55,10.0,WSW,12.7,26.5,0.01,,Clear,240,2012-10-18 15:53:00
12:53 PM,57.0,39.0,51,29.57,10.0,SW,17.3,24.2,N/A,,Clear,220,2012-10-18 16:53:00
1:53 PM,57.9,37.0,46,29.57,10.0,SSW,16.1,26.5,N/A,,Clear,210,2012-10-18 17:53:00
2:53 PM,60.1,35.1,39,29.56,10.0,SSW,20.7,27.6,N/A,,Partly Cloudy,200,2012-10-18 18:53:00
3:53 PM,60.1,33.1,36,29.56,10.0,SW,17.3,35.7,N/A,,Mostly Cloudy,220,2012-10-18 19:53:00
4:53 PM,55.0,36.0,49,29.59,10.0,South,12.7,-,0.00,,Partly Cloudy,190,2012-10-18 20:53:00
5:53 PM,57.0,35.1,44,29.58,10.0,South,13.8,28.8,N/A,,Partly Cloudy,180,2012-10-18 21:53:00
6:53 PM,55.9,34.0,44,29.61,10.0,South,12.7,24.2,N/A,,Scattered Clouds,180,2012-10-18 22:53:00
7:53 PM,54.0,35.1,49,29.64,10.0,South,9.2,18.4,N/A,,Scattered Clouds,190,2012-10-18 23:53:00
8:53 PM,52.0,36.0,54,29.65,10.0,South,9.2,-,N/A,,Partly Cloudy,190,2012-10-19 00:53:00
9:53 PM,48.9,37.0,64,29.66,10.0,SSW,6.9,-,N/A,,Partly Cloudy,200,2012-10-19 01:53:00
10:53 PM,50.0,37.9,63,29.66,10.0,South,4.6,-,N/A,,Mostly Cloudy,190,2012-10-19 02:53:00
11:53 PM,51.1,37.0,59,29.65,10.0,SSE,5.8,-,N/A,,Overcast,160,2012-10-19 03:53:00